When you browse on this site, cookies collect data to enhance your experience and personalize the content and advertising you see.
Visit our Privacy Policy to learn more. By continuing to use the site, you agree to this use of cookies and data.
  • In Hungary
  • List of Countries
  • For 7 days
  • Water Temperature
  • Satellite Maps
  • Weather Map
  • News
  • Weather Widgets
  • user-avatar
    Login

    Hourly Weather Jinzhou

    Today, 23 February, Saturday

    Time Temperature Precipitation Wind Pressure Humidity
    00:00 +2°C° 0 mm 2 mps 768 mmHg 36%
    01:00 +2°C° 0 mm 2 mps 768 mmHg 36%
    02:00 +1°C° 0 mm 2 mps 768 mmHg 37%
    03:00 +1°C° 0 mm 2 mps 768 mmHg 37%
    04:00 +1°C° 0 mm 2 mps 768 mmHg 37%
    05:00 +2°C° 0 mm 1 mps 768 mmHg 37%
    06:00 +2°C° 0 mm 1 mps 768 mmHg 36%
    07:00 +3°C° 0 mm 1 mps 768 mmHg 35%
    08:00 +3°C° 0 mm 1 mps 768 mmHg 32%
    09:00 +5°C° 0 mm 1 mps 767 mmHg 29%
    10:00 +7°C° 0 mm 1 mps 767 mmHg 26%
    11:00 +9°C° 0 mm 1 mps 767 mmHg 23%
    12:00 +9°C° 0 mm 2 mps 766 mmHg 22%
    13:00 +10°C° 0 mm 3 mps 766 mmHg 20%
    14:00 +12°C° 0 mm 4 mps 764 mmHg 18%
    15:00 +11°C° 0 mm 4 mps 764 mmHg 20%
    16:00 +8°C° 0 mm 4 mps 764 mmHg 23%
    17:00 +7°C° 0 mm 5 mps 764 mmHg 25%
    18:00 +6°C° 0 mm 4 mps 764 mmHg 29%
    19:00 +4°C° 0 mm 4 mps 764 mmHg 33%
    20:00 +3°C° 0 mm 4 mps 763 mmHg 36%
    21:00 +3°C° 0 mm 4 mps 763 mmHg 38%
    22:00 +3°C° 0 mm 3 mps 764 mmHg 40%
    23:00 +2°C° 0 mm 3 mps 764 mmHg 42%

    Tomorrow, 24 February, Sunday

    Time Temperature Precipitation Wind Pressure Humidity
    00:00 +2°C° 0 mm 3 mps 764 mmHg 43%
    01:00 +3°C° 0 mm 2 mps 764 mmHg 44%
    02:00 +2°C° 0 mm 2 mps 764 mmHg 46%
    03:00 +2°C° 0 mm 2 mps 764 mmHg 47%
    04:00 +2°C° 0 mm 2 mps 764 mmHg 49%
    05:00 +1°C° 0 mm 3 mps 764 mmHg 50%
    06:00 +1°C° 0 mm 3 mps 764 mmHg 52%
    07:00 +1°C° 0 mm 3 mps 764 mmHg 53%
    08:00 +1°C° 0 mm 3 mps 765 mmHg 54%
    09:00 +3°C° 0 mm 3 mps 765 mmHg 45%
    10:00 +5°C° 0 mm 4 mps 765 mmHg 35%
    11:00 +6°C° 0 mm 4 mps 765 mmHg 26%
    12:00 +7°C° 0 mm 4 mps 765 mmHg 24%
    13:00 +8°C° 0 mm 4 mps 764 mmHg 22%
    14:00 +8°C° 0 mm 4 mps 764 mmHg 20%
    15:00 +8°C° 0 mm 4 mps 764 mmHg 20%
    16:00 +7°C° 0 mm 4 mps 764 mmHg 21%
    17:00 +7°C° 0 mm 4 mps 764 mmHg 22%
    18:00 +5°C° 0 mm 3 mps 764 mmHg 25%
    19:00 +4°C° 0 mm 3 mps 765 mmHg 27%
    20:00 +3°C° 0 mm 3 mps 765 mmHg 30%
    21:00 +2°C° 0 mm 3 mps 766 mmHg 32%
    22:00 +2°C° 0 mm 3 mps 766 mmHg 33%
    23:00 +1°C° 0 mm 3 mps 767 mmHg 35%

    Day after tomorrow, 25 February, Monday

    Time Temperature Precipitation Wind Pressure Humidity
    00:00 0°C° 0 mm 3 mps 767 mmHg 36%
    01:00 0°C° 0 mm 3 mps 767 mmHg 38%
    02:00 -1°C° 0 mm 3 mps 768 mmHg 40%
    03:00 -1°C° 0 mm 3 mps 768 mmHg 40%
    04:00 -2°C° 0 mm 3 mps 768 mmHg 40%
    05:00 -2°C° 0 mm 3 mps 767 mmHg 40%
    06:00 -2°C° 0 mm 3 mps 768 mmHg 38%
    07:00 -1°C° 0 mm 3 mps 768 mmHg 35%
    08:00 -1°C° 0 mm 3 mps 768 mmHg 33%
    09:00 +1°C° 0 mm 3 mps 768 mmHg 29%
    10:00 +2°C° 0 mm 3 mps 768 mmHg 24%
    11:00 +4°C° 0 mm 4 mps 768 mmHg 20%
    12:00 +4°C° 0 mm 3 mps 768 mmHg 19%
    13:00 +5°C° 0 mm 3 mps 767 mmHg 17%
    14:00 +7°C° 0 mm 2 mps 767 mmHg 16%
    15:00 +7°C° 0 mm 2 mps 766 mmHg 17%
    16:00 +6°C° 0 mm 2 mps 766 mmHg 19%
    17:00 +7°C° 0 mm 1 mps 766 mmHg 20%
    18:00 +5°C° 0 mm 2 mps 766 mmHg 25%
    19:00 +3°C° 0 mm 2 mps 767 mmHg 29%
    20:00 +2°C° 0 mm 2 mps 767 mmHg 33%
    21:00 +1°C° 0 mm 2 mps 767 mmHg 35%
    22:00 +1°C° 0 mm 2 mps 767 mmHg 36%
    23:00 +1°C° 0 mm 1 mps 768 mmHg 37%

    26 February, Tuesday

    Time Temperature Precipitation Wind Pressure Humidity
    00:00 +1°C° 0 mm 1 mps 768 mmHg 36%
    01:00 +1°C° 0 mm 1 mps 768 mmHg 34%
    02:00 +1°C° 0 mm 1 mps 768 mmHg 33%
    03:00 +1°C° 0 mm 1 mps 768 mmHg 32%
    04:00 -1°C° 0 mm 2 mps 768 mmHg 31%
    05:00 -1°C° 0 mm 2 mps 768 mmHg 31%
    06:00 -1°C° 0 mm 2 mps 768 mmHg 31%
    07:00 +1°C° 0 mm 2 mps 768 mmHg 31%
    08:00 +1°C° 0 mm 2 mps 769 mmHg 32%
    09:00 +3°C° 0 mm 2 mps 769 mmHg 29%
    10:00 +6°C° 0 mm 1 mps 769 mmHg 27%
    11:00 +7°C° 0 mm 1 mps 769 mmHg 24%
    12:00 +8°C° 0 mm 1 mps 768 mmHg 23%
    13:00 +9°C° 0 mm 1 mps 768 mmHg 22%
    14:00 +10°C° 0 mm 1 mps 767 mmHg 21%
    15:00 +8°C° 0 mm 2 mps 767 mmHg 23%
    16:00 +7°C° 0 mm 2 mps 767 mmHg 25%
    17:00 +7°C° 0 mm 3 mps 767 mmHg 27%
    18:00 +5°C° 0 mm 2 mps 767 mmHg 30%
    19:00 +4°C° 0 mm 2 mps 767 mmHg 33%
    20:00 +3°C° 0 mm 2 mps 767 mmHg 36%
    21:00 +2°C° 0 mm 2 mps 767 mmHg 36%
    22:00 +3°C° 0 mm 1 mps 767 mmHg 36%
    23:00 +3°C° 0 mm 1 mps 767 mmHg 37%

    27 February, Wednesday

    Time Temperature Precipitation Wind Pressure Humidity
    00:00 +2°C° 0 mm 1 mps 767 mmHg 37%
    01:00 +2°C° 0 mm 1 mps 767 mmHg 37%
    02:00 +1°C° 0 mm 2 mps 766 mmHg 38%
    03:00 +1°C° 0 mm 1 mps 766 mmHg 40%
    04:00 +1°C° 0 mm 1 mps 765 mmHg 42%
    05:00 +1°C° 0 mm 1 mps 765 mmHg 45%
    06:00 +2°C° 0 mm 1 mps 765 mmHg 45%
    07:00 +1°C° 0 mm 2 mps 765 mmHg 44%
    08:00 +2°C° 0 mm 2 mps 765 mmHg 44%
    09:00 +4°C° 0 mm 2 mps 765 mmHg 40%
    10:00 +5°C° 0 mm 3 mps 765 mmHg 35%
    11:00 +8°C° 0 mm 3 mps 765 mmHg 31%
    12:00 +9°C° 0 mm 3 mps 764 mmHg 30%
    13:00 +9°C° 0 mm 3 mps 763 mmHg 30%
    14:00 +10°C° 0 mm 3 mps 762 mmHg 29%
    15:00 +9°C° 0 mm 3 mps 762 mmHg 32%
    16:00 +9°C° 0 mm 3 mps 762 mmHg 36%
    17:00 +8°C° 0 mm 3 mps 761 mmHg 39%
    18:00 +7°C° 0 mm 3 mps 762 mmHg 46%
    19:00 +5°C° 0 mm 2 mps 762 mmHg 53%
    20:00 +4°C° 0 mm 2 mps 762 mmHg 60%
    21:00 +3°C° 0 mm 2 mps 762 mmHg 62%
    22:00 +3°C° 0 mm 2 mps 762 mmHg 65%
    23:00 +4°C° 0 mm 1 mps 762 mmHg 67%

    28 February, Thursday

    Time Temperature Precipitation Wind Pressure Humidity
    00:00 +3°C° 0 mm 1 mps 762 mmHg 67%
    01:00 +3°C° 0 mm 1 mps 762 mmHg 66%
    02:00 +3°C° 0 mm 1 mps 762 mmHg 66%
    03:00 +3°C° 0 mm 1 mps 762 mmHg 66%
    04:00 +2°C° 0 mm 1 mps 762 mmHg 65%
    05:00 +2°C° 0 mm 1 mps 761 mmHg 65%
    06:00 +3°C° 0 mm 1 mps 762 mmHg 61%
    07:00 +3°C° 0 mm 1 mps 762 mmHg 56%
    08:00 +4°C° 0 mm 1 mps 762 mmHg 52%
    09:00 +6°C° 0 mm 1 mps 762 mmHg 45%
    10:00 +8°C° 0 mm 1 mps 762 mmHg 37%
    11:00 +8°C° 0 mm 2 mps 762 mmHg 30%
    12:00 +9°C° 0 mm 2 mps 761 mmHg 27%
    13:00 +11°C° 0 mm 1 mps 761 mmHg 25%
    14:00 +12°C° 0 mm 1 mps 761 mmHg 22%
    15:00 +12°C° 0 mm 2 mps 761 mmHg 24%
    16:00 +10°C° 0 mm 2 mps 761 mmHg 26%
    17:00 +10°C° 0 mm 2 mps 761 mmHg 28%
    18:00 +8°C° 0 mm 2 mps 761 mmHg 32%
    19:00 +8°C° 0 mm 1 mps 762 mmHg 37%
    20:00 +6°C° 0 mm 1 mps 762 mmHg 41%
    21:00 +6°C° 0 mm 1 mps 762 mmHg 42%
    22:00 +6°C° 0 mm 1 mps 763 mmHg 42%
    23:00 +4°C° 0 mm 0 mps 763 mmHg 43%
    Show more